This demonstration page uses our WeatherBlox Daily Observations layout. Learn more.

Left ArrowRight Arrow

Hourly Observations for November 12, 2021

Temp ( °F °C ) Dew Point ( °F °C ) Humidity (%) Winds ( mph kmh ) Pressure ( in mb ) Visibility ( mi km ) Precip ( " mm )
12:15 am 00:15 Cloudy 63 17 59 15 88 88 S 13 20 29.96 1014 10 16 N/A
12:35 am 00:35 Cloudy 63 17 59 15 88 88 SSE 9 15 29.95 1014 10 16 N/A
12:55 am 00:55 Cloudy 63 17 59 15 88 88 SSE 10 17 29.94 1014 10 16 N/A
1:15 am 01:15 Cloudy 63 17 59 15 88 88 SSE 10 17 29.93 1013 10 16 N/A
1:35 am 01:35 Cloudy 63 17 59 15 88 88 SSE 14 22 29.92 1013 10 16 N/A
1:55 am 01:55 Cloudy 63 17 59 15 88 88 SSE 16 26 29.91 1013 10 16 N/A
2:15 am 02:15 Cloudy 63 17 59 15 88 88 SSE 14 22 29.91 1013 10 16 N/A
2:35 am 02:35 Cloudy with Light Rain 63 17 61 16 94 94 S 15 24 29.90 1012 10 16 N/A
2:55 am 02:55 Cloudy with Light Rain 63 17 61 16 94 94 S 13 20 29.89 1012 10 16 N/A
3:15 am 03:15 Cloudy with Rain 63 17 61 16 94 94 S 13 20 29.89 1012 7 11 N/A
3:35 am 03:35 Cloudy with Light Rain 63 17 63 17 100 100 S 14 22 29.87 1011 7 11 N/A
3:55 am 03:55 Cloudy with Light Rain 63 17 63 17 100 100 S 16 26 29.86 1011 7 11 N/A
4:15 am 04:15 Cloudy with Light Rain 63 17 63 17 100 100 S 13 20 29.86 1011 10 16 N/A
4:35 am 04:35 Cloudy with Light Rain 63 17 63 17 100 100 S 14 22 29.86 1011 7 11 N/A
4:55 am 04:55 Cloudy with Heavy Rain 63 17 63 17 100 100 WSW 12 19 29.88 1012 3 4 N/A
5:15 am 05:15 Cloudy with Rain 61 16 59 15 94 94 SSW 6 9 29.89 1012 7 11 N/A
5:35 am 05:35 Cloudy with Rain 59 15 59 15 100 100 SSW 3 6 29.89 1012 10 16 N/A
5:55 am 05:55 Cloudy with Rain 59 15 59 15 100 100 N N/A 29.89 1012 7 11 N/A
6:15 am 06:15 Cloudy with Light Rain 59 15 59 15 100 100 S 6 9 29.91 1013 10 16 N/A
6:35 am 06:35 Cloudy with Rain 59 15 59 15 100 100 SW 5 7 29.91 1013 5 8 N/A
6:55 am 06:55 Cloudy with Heavy Rain 59 15 59 15 100 100 N 5 7 29.90 1012 5 8 N/A
7:15 am 07:15 Cloudy with Light Rain 59 15 59 15 100 100 NW 9 15 29.93 1013 10 16 N/A
7:35 am 07:35 Cloudy 57 14 54 12 88 88 NW 17 28 29.93 1014 10 16 N/A
7:55 am 07:55 Cloudy with Light Rain 54 12 48 9 82 82 NW 14 22 29.96 1015 10 16 N/A
8:15 am 08:15 Cloudy 54 12 48 9 82 82 NW 12 19 29.98 1015 10 16 N/A
8:35 am 08:35 Cloudy 54 12 46 8 77 77 NW 8 13 29.99 1016 10 16 N/A
8:55 am 08:55 Cloudy 54 12 46 8 77 77 NW 9 15 30.00 1016 10 16 N/A
9:15 am 09:15 Cloudy 55 13 46 8 72 72 NNW 8 13 30.00 1016 10 16 N/A
9:35 am 09:35 Cloudy 55 13 46 8 72 72 NNW 10 17 30.00 1016 10 16 N/A
9:55 am 09:55 Cloudy 55 13 45 7 67 67 NW 12 19 30.00 1016 10 16 N/A
10:15 am 10:15 Cloudy 55 13 45 7 67 67 NW 10 17 30.01 1016 10 16 N/A
10:35 am 10:35 Cloudy 55 13 45 7 67 67 NW 8 13 30.01 1016 10 16 N/A
10:55 am 10:55 Cloudy 57 14 45 7 63 63 NW 10 17 30.02 1017 10 16 N/A
11:15 am 11:15 Mostly Cloudy 59 15 45 7 59 59 WNW 7 11 30.01 1016 10 16 N/A
11:35 am 11:35 Mostly Cloudy 61 16 45 7 55 55 NW 9 15 30.00 1016 10 16 N/A
11:55 am 11:55 Partly Cloudy 61 16 45 7 55 55 NNW 7 11 29.97 1015 10 16 N/A
12:15 pm 12:15 Sunny 61 16 45 7 55 55 NNW 7 11 29.96 1014 10 16 N/A
12:35 pm 12:35 Sunny 61 16 43 6 52 52 N 6 9 29.95 1014 10 16 N/A
12:55 pm 12:55 Sunny 63 17 45 7 52 52 NW 7 11 29.95 1014 10 16 N/A
1:15 pm 13:15 Sunny 63 17 43 6 49 49 NNW 7 11 29.95 1014 10 16 N/A
1:35 pm 13:35 Sunny 63 17 41 5 45 45 NW 6 9 29.96 1014 10 16 N/A
1:55 pm 13:55 Sunny 63 17 39 4 42 42 NW 13 20 29.95 1014 10 16 N/A
2:15 pm 14:15 Sunny 63 17 39 4 42 42 NW 5 7 29.95 1014 10 16 N/A
2:35 pm 14:35 Sunny 63 17 37 3 39 39 NW 6 9 29.95 1014 10 16 N/A
2:55 pm 14:55 Sunny 63 17 37 3 39 39 NW 6 9 29.94 1014 10 16 N/A
3:15 pm 15:15 Sunny 63 17 36 2 37 37 N N/A 29.94 1014 10 16 N/A
3:35 pm 15:35 Sunny 63 17 39 4 42 42 NW 6 9 29.95 1014 10 16 N/A
3:55 pm 15:55 Sunny 63 17 37 3 39 39 N N/A 29.95 1014 10 16 N/A
4:15 pm 16:15 Sunny 61 16 37 3 42 42 N 3 6 29.95 1014 10 16 N/A
4:35 pm 16:35 Sunny 61 16 36 2 39 39 N N/A 29.96 1014 10 16 N/A
4:55 pm 16:55 Sunny 61 16 36 2 39 39 N N/A 29.95 1014 10 16 N/A
5:15 pm 17:15 Clear 59 15 37 3 45 45 N N/A 29.96 1015 10 16 N/A
5:35 pm 17:35 Clear 57 14 37 3 48 48 ESE 5 7 29.96 1015 10 16 N/A
5:55 pm 17:55 Clear 57 14 37 3 48 48 N N/A 29.96 1015 10 16 N/A
6:15 pm 18:15 Clear 54 12 39 4 58 58 SE 3 6 29.97 1015 10 16 N/A
6:35 pm 18:35 Clear 52 11 43 6 72 72 SE 3 6 29.97 1015 10 16 N/A
6:55 pm 18:55 Clear 50 10 43 6 76 76 N N/A 29.99 1015 10 16 N/A
7:15 pm 19:15 Clear 48 9 43 6 82 82 N N/A 29.99 1015 10 16 N/A
7:35 pm 19:35 Clear 46 8 43 6 87 87 N N/A 29.98 1015 10 16 N/A
7:55 pm 19:55 Clear 46 8 43 6 87 87 N N/A 29.98 1015 10 16 N/A
8:15 pm 20:15 Clear 46 8 41 5 82 82 N N/A 29.97 1015 10 16 N/A
8:35 pm 20:35 Clear 45 7 41 5 87 87 N N/A 29.97 1015 10 16 N/A
8:55 pm 20:55 Clear 45 7 41 5 87 87 N N/A 29.97 1015 10 16 N/A
9:15 pm 21:15 Clear 45 7 43 6 93 93 N N/A 29.97 1015 10 16 N/A
9:35 pm 21:35 Clear 43 6 41 5 93 93 N N/A 29.98 1015 10 16 N/A
9:55 pm 21:55 Clear 46 8 41 5 82 82 SSW 3 6 29.97 1015 10 16 N/A
10:15 pm 22:15 Clear 45 7 41 5 87 87 N N/A 29.96 1015 10 16 N/A
10:35 pm 22:35 Clear 43 6 41 5 93 93 N N/A 29.96 1015 10 16 N/A
10:55 pm 22:55 Clear 45 7 43 6 93 93 N N/A 29.95 1014 10 16 N/A
11:15 pm 23:15 Clear 43 6 41 5 93 93 N N/A 29.95 1014 10 16 N/A
11:35 pm 23:35 Clear 41 5 41 5 100 100 N N/A 29.94 1014 10 16 N/A
11:55 pm 23:55 Clear 43 6 41 5 93 93 N N/A 29.94 1014 10 16 N/A

Powered by AerisWeather